Location: Rounton
(54.4000°N, 1.3500°W)
Time: 02:29:29
(UTC+01:00)

Vanguard 3 - Pass Details

Date: 26 April 2024
Orbit: 509 x 3233 km, 33.3° (Epoch: 23 May)

Event Time Altitude Azimuth Distance (km) Brightness Sun altitude
Exits shadow 03:05:11 18° 192° (SSW) 5,048 10.6 -17.2°
Maximum altitude 03:11:59 23° 164° (SSE) 4,227 10.4 -16.7°
Drops below altitude 10° 03:21:03 10° 119° (ESE) 4,406 11.0 -15.9°
Sets 03:24:54 0° 105° (ESE) 4,987 11.5 -15.6°
